Weather reports worldwide

Advertisment
Winston Salem, nc, United States of America (2072822): temperature & dewpoint: 11.07.2019 03:00:00 - 17.07.2019 03:00:00 (EDT)Winston Salem, nc, United States of America (2072822): wind speed & gusts: 11.07.2019 03:00:00 - 17.07.2019 03:00:00 (EDT)Winston Salem, nc, United States of America (2072822): wind direction: 11.07.2019 03:00:00 - 17.07.2019 03:00:00 (EDT)Winston Salem, nc, United States of America (2072822): reduced air pressure: 11.07.2019 03:00:00 - 17.07.2019 03:00:00 (EDT)Winston Salem, nc, United States of America (2072822): visibility: 11.07.2019 03:00:00 - 17.07.2019 03:00:00 (EDT)Winston Salem, nc, United States of America (2072822): precipitation: 11.07.2019 03:00:00 - 17.07.2019 03:00:00 (EDT)
Date & Time tt [°C] td [°C] ff [km/h] ff [kn] fx [km/h] fx [kn] dd ppp [hPa] vv [km] rr [mm]
17.07.2019 03:00:00 25,0 22,2 0 0 - - N 1017,4 16 -
17.07.2019 02:00:00 27,2 20,6 5 3 - - SSW 1018,0 16 -
17.07.2019 01:00:00 25,6 22,2 0 0 - - N 1018,3 16 -
17.07.2019 00:00:00 26,1 22,8 0 0 - - N 1018,4 16 -
16.07.2019 23:00:00 27,2 22,2 0 0 - - N 1018,5 16 -
16.07.2019 22:00:00 27,8 22,2 0 0 - - N 1018,3 16 -
16.07.2019 21:00:00 29,4 22,2 0 0 - - N 1017,4 16 -
16.07.2019 20:00:00 31,1 20,6 5 3 - - SSE 1017,1 16 -
16.07.2019 19:00:00 33,3 18,9 9 5 - - SSW 1017,2 16 -
16.07.2019 18:00:00 32,8 18,9 8 4 - - WSW 1017,3 16 -
16.07.2019 17:00:00 33,9 19,4 9 5 - - SW 1017,4 16 -
16.07.2019 16:00:00 33,9 20,0 - - - - - 1018,2 16 -
16.07.2019 15:00:00 33,9 20,0 11 6 - - WSW 1018,8 16 -
16.07.2019 14:00:00 32,8 19,4 11 6 - - - 1019,4 16 -
16.07.2019 13:00:00 32,2 20,0 8 4 - - - 1019,8 16 -
16.07.2019 12:00:00 31,7 22,2 5 3 - - - 1020,3 16 -
16.07.2019 11:00:00 30,0 21,7 0 0 - - N 1020,3 16 -
16.07.2019 10:00:00 27,8 22,2 0 0 - - N 1020,4 16 -
16.07.2019 09:00:00 26,7 22,8 0 0 - - N 1020,3 16 -
16.07.2019 08:00:00 25,6 22,2 0 0 - - N 1020,0 16 -
16.07.2019 07:00:00 24,4 22,2 0 0 - - N 1019,7 16 -
16.07.2019 06:00:00 23,9 22,2 0 0 - - N 1019,1 16 -
16.07.2019 05:00:00 23,9 21,7 0 0 - - N 1018,7 16 -
16.07.2019 04:00:00 24,4 21,7 8 4 - - N 1018,4 16 -
16.07.2019 03:00:00 25,0 21,1 0 0 - - N 1018,5 16 -
16.07.2019 02:00:00 24,4 21,7 0 0 - - N 1018,9 16 -
16.07.2019 01:00:00 26,1 21,1 8 4 - - WNW 1019,1 16 -
16.07.2019 00:00:00 25,0 22,2 0 0 - - N 1019,0 16 -
15.07.2019 23:00:00 23,9 22,8 0 0 - - N 1018,8 16 -
15.07.2019 22:00:00 25,0 22,8 0 0 - - N 1018,8 16 -
15.07.2019 21:00:00 28,3 20,6 0 0 - - N 1018,7 16 -
15.07.2019 20:00:00 27,2 20,6 0 0 - - N 1018,3 16 0,0
15.07.2019 19:00:00 28,3 19,4 11 6 - - E 1018,2 16 -
15.07.2019 18:00:00 32,8 20,0 5 3 - - ENE 1017,3 16 -
15.07.2019 17:00:00 32,8 20,0 9 5 - - N 1017,7 16 -
15.07.2019 16:00:00 32,2 19,4 5 3 - - SW 1018,4 16 -
15.07.2019 15:00:00 32,8 20,0 5 3 - - SE 1018,9 16 -
15.07.2019 14:00:00 31,1 19,4 11 6 - - - 1019,4 16 -
15.07.2019 13:00:00 31,1 20,0 0 0 - - N 1019,9 16 -
15.07.2019 12:00:00 31,1 20,6 9 5 - - - 1020,0 16 -
15.07.2019 11:00:00 29,4 20,6 15 8 - - E 1020,1 16 -
15.07.2019 10:00:00 28,9 20,0 15 8 - - NNE 1020,3 16 -
15.07.2019 09:00:00 27,8 19,4 9 5 - - NNE 1020,2 16 -
15.07.2019 08:00:00 25,0 18,9 11 6 - - N 1019,9 16 -
15.07.2019 07:00:00 22,8 19,4 8 4 - - NNW 1019,6 16 -
15.07.2019 06:00:00 22,8 18,9 8 4 - - NNW 1019,0 16 -
15.07.2019 05:00:00 23,9 18,3 5 3 - - NW 1018,5 16 -
15.07.2019 04:00:00 23,9 18,3 0 0 - - N 1018,1 16 -
15.07.2019 03:00:00 25,6 18,3 5 3 - - NW 1018,0 16 -
15.07.2019 02:00:00 25,0 19,4 9 5 - - NNW 1018,2 16 -
15.07.2019 01:00:00 25,0 19,4 5 3 - - NW 1018,4 16 -
15.07.2019 00:00:00 27,8 18,9 9 5 - - WNW 1018,5 16 -
14.07.2019 23:00:00 28,3 18,9 5 3 - - WNW 1018,3 16 -
14.07.2019 22:00:00 26,7 20,0 0 0 - - N 1017,9 16 -
14.07.2019 21:00:00 30,6 17,2 0 0 - - N 1017,4 16 -
14.07.2019 20:00:00 32,2 17,2 8 4 - - WNW 1017,2 16 -
14.07.2019 19:00:00 33,3 16,7 9 5 - - NW 1017,2 16 -
14.07.2019 18:00:00 33,3 17,2 9 5 - - N 1017,0 16 -
14.07.2019 17:00:00 33,3 16,7 9 5 - - WNW 1017,4 16 -
14.07.2019 16:00:00 33,3 17,2 13 7 - - N 1017,7 16 -
14.07.2019 15:00:00 32,8 18,3 0 0 - - N 1018,3 16 -
14.07.2019 14:00:00 32,2 17,2 13 7 - - N 1018,9 16 -
14.07.2019 13:00:00 31,7 19,4 - - - - - 1019,2 16 -
14.07.2019 12:00:00 31,1 19,4 9 5 - - - 1019,5 16 -
14.07.2019 11:00:00 30,0 20,0 18 10 - - NNW 1019,4 16 -
14.07.2019 10:00:00 28,9 20,0 21 11 - - NNW 1019,5 16 -
14.07.2019 09:00:00 27,2 21,1 11 6 - - NNW 1019,3 16 -
14.07.2019 08:00:00 25,6 21,1 8 4 - - WNW 1018,6 16 -
14.07.2019 07:00:00 25,0 20,6 0 0 - - N 1018,1 16 -
14.07.2019 06:00:00 23,9 20,6 0 0 - - N 1017,5 16 -
14.07.2019 05:00:00 24,4 21,1 9 5 - - NNW 1016,9 16 -
14.07.2019 04:00:00 25,0 21,7 9 5 - - NW 1016,5 16 -
14.07.2019 03:00:00 25,0 22,2 11 6 - - NW 1016,3 16 -
14.07.2019 02:00:00 25,0 22,8 5 3 - - WSW 1016,4 16 -
14.07.2019 01:00:00 26,1 22,8 9 5 - - W 1016,5 16 -
14.07.2019 00:00:00 26,7 22,8 8 4 - - WSW 1017,1 16 -
13.07.2019 23:00:00 27,8 23,3 8 4 - - SSW 1017,1 16 -
13.07.2019 22:00:00 28,9 22,2 8 4 - - SW 1016,9 16 -
13.07.2019 21:00:00 30,0 20,0 8 4 - - W 1016,0 16 -
13.07.2019 20:00:00 31,1 19,4 0 0 - - N 1015,9 16 -
13.07.2019 19:00:00 31,1 20,6 5 3 - - NE 1015,8 16 -
13.07.2019 18:00:00 31,7 18,9 9 5 - - ENE 1015,5 16 -
13.07.2019 17:00:00 33,3 18,9 8 4 - - WNW 1015,1 16 -
13.07.2019 16:00:00 32,8 17,8 11 6 - - N 1015,1 16 -
13.07.2019 15:00:00 32,8 18,3 16 9 - - N 1015,2 16 -
13.07.2019 14:00:00 32,8 18,3 11 6 - - - 1016,2 16 -
13.07.2019 13:00:00 31,7 18,3 13 7 - - NW 1017,0 16 -
13.07.2019 12:00:00 30,6 19,4 5 3 - - - 1017,2 16 -
13.07.2019 11:00:00 30,0 20,0 8 4 - - N 1017,5 16 -
13.07.2019 10:00:00 28,3 21,1 8 4 - - NNW 1017,1 16 -
13.07.2019 09:00:00 26,1 21,7 8 4 - - NNW 1016,8 16 -
13.07.2019 08:00:00 23,9 22,2 5 3 - - N 1015,9 16 -
13.07.2019 07:00:00 23,3 21,7 0 0 - - N 1015,5 16 -
13.07.2019 06:00:00 22,2 21,1 0 0 - - N 1014,6 13 -
13.07.2019 05:00:00 23,3 21,7 0 0 - - N 1013,9 16 -
13.07.2019 04:00:00 23,3 22,2 5 3 - - WSW 1013,8 16 -
13.07.2019 03:00:00 23,9 22,2 0 0 - - N 1013,6 16 -
13.07.2019 02:00:00 24,4 22,2 0 0 - - N 1013,4 16 -
13.07.2019 01:00:00 25,0 22,2 5 3 - - SW 1013,6 16 -
13.07.2019 00:00:00 26,1 22,2 5 3 - - - 1013,9 16 -
12.07.2019 23:00:00 26,7 22,2 0 0 - - N 1013,6 16 -
12.07.2019 22:00:00 27,8 22,2 5 3 - - SSW 1013,4 16 -
12.07.2019 21:00:00 28,3 22,8 9 5 - - SW 1012,5 16 -
12.07.2019 20:00:00 29,4 22,8 11 6 - - SSW 1011,9 16 -
12.07.2019 19:00:00 30,0 22,8 9 5 - - SSW 1011,7 16 -
12.07.2019 18:00:00 30,0 22,8 8 4 - - S 1011,4 16 -
12.07.2019 17:00:00 31,1 20,6 9 5 - - W 1011,3 16 -
12.07.2019 16:00:00 31,7 20,0 11 6 - - W 1011,7 16 -
12.07.2019 15:00:00 31,7 20,6 15 8 - - W 1012,1 16 -
12.07.2019 14:00:00 31,1 21,1 9 5 - - WNW 1012,3 16 -
12.07.2019 13:00:00 30,6 21,7 11 6 - - W 1013,0 16 -
12.07.2019 12:00:00 28,9 21,7 9 5 - - WNW 1013,0 16 -
12.07.2019 11:00:00 27,8 21,7 8 4 - - - 1013,1 16 -
12.07.2019 10:00:00 26,7 21,7 8 4 - - WNW 1013,2 16 -
12.07.2019 09:00:00 25,0 21,7 5 3 - - SSW 1012,9 16 -
12.07.2019 08:00:00 23,3 21,7 8 4 - - SW 1012,7 16 -
12.07.2019 07:00:00 22,2 21,1 5 3 - - - 1011,8 16 -
12.07.2019 06:00:00 22,2 21,1 0 0 - - N 1011,2 16 -
12.07.2019 05:00:00 22,2 21,1 5 3 - - - 1011,1 16 -
12.07.2019 04:00:00 22,2 21,1 8 4 - - S 1011,3 16 -
12.07.2019 03:00:00 22,2 21,1 5 3 - - SW 1011,3 16 -
12.07.2019 02:00:00 22,8 21,1 0 0 - - N 1011,4 16 -
12.07.2019 01:00:00 23,3 21,1 5 3 - - S 1011,9 16 -
12.07.2019 00:00:00 23,3 21,1 0 0 - - N 1012,3 16 -
11.07.2019 23:00:00 23,9 21,7 8 4 - - W 1012,3 16 -
11.07.2019 22:00:00 24,4 21,1 0 0 - - N 1011,5 16 -
11.07.2019 21:00:00 25,0 21,1 8 4 - - - 1011,7 16 -
11.07.2019 20:00:00 24,4 21,7 8 4 - - WSW 1011,4 16 -
11.07.2019 19:00:00 24,4 22,2 11 6 - - WNW 1011,0 16 0,0
11.07.2019 18:00:00 23,9 21,7 13 7 - - WNW 1011,2 8 0,0
11.07.2019 17:00:00 24,4 20,0 9 5 48 26 WNW 1011,8 16 -
11.07.2019 16:00:00 31,1 21,7 16 9 - - SW 1011,2 16 -
11.07.2019 15:00:00 31,1 22,2 13 7 - - SW 1011,9 16 -
11.07.2019 14:00:00 30,0 22,2 11 6 - - - 1012,5 10 -
11.07.2019 13:00:00 30,6 22,8 11 6 - - S 1013,3 16 -
11.07.2019 12:00:00 28,9 22,8 11 6 - - SW 1013,8 16 -
11.07.2019 11:00:00 27,8 22,8 8 4 - - W 1014,5 16 -
11.07.2019 10:00:00 26,7 22,8 13 7 - - WSW 1014,9 16 -
11.07.2019 09:00:00 25,0 22,8 8 4 - - SW 1015,2 16 -
11.07.2019 08:00:00 23,9 22,8 8 4 - - S 1014,9 10 -
11.07.2019 07:00:00 23,3 22,2 8 4 - - S 1014,6 8 -
11.07.2019 06:00:00 23,3 22,2 5 3 - - SSE 1014,3 16 -
11.07.2019 05:00:00 23,9 22,2 5 3 - - - 1014,5 10 -
11.07.2019 04:00:00 23,9 22,2 8 4 - - SSW 1014,5 16 -
11.07.2019 03:00:00 23,9 22,2 8 4 - - S 1015,0 16 -

tt = temperature
td = dewpoint
ff = wind speed
fx = gusts
dd = wind direction
ppp = reduced air pressure
vv = visibility
rr = precipitation

Next stations